Location: Nitra
(0.0000°N, 18.0833°E)
Time: 10:31:58
(UTC+02:00)

A-11 Canister half - Pass Details

Date: 02 April 2023
Orbit: 1513 x 1686 km, 47.2° (Epoch: 02 June)

Event Time Altitude Azimuth Distance (km) Brightness Sun altitude
Exits shadow 05:01:20 19° 321° (NW) 3,232 10.4 -27.4°
Maximum altitude 05:09:11 89° 50° (NE) 1,658 9.0 -25.5°
Drops below altitude 10° 05:19:05 10° 140° (SE) 3,841 11.5 -23.0°
Sets 05:22:09 0° 140° (SE) 4,805 12.1 -22.2°
